Location: Enikep?du
(16.5133°N, 80.7066°E)
Time: 18:26:32
(UTC+00:00)

COSMO-SKYMED 1 - Pass Details

Date: 20 January 2020
Orbit: 621 x 623 km, 97.9° (Epoch: 26 February)

Event Time Altitude Azimuth Distance (km) Brightness Sun altitude
Rises 00:10:57 0° 170° (S) 2,890 6.4 -14.1°
Reaches altitude 10° 00:13:08 10° 171° (S) 1,985 5.5 -13.6°
Maximum altitude 00:17:27 80° 259° (WSW) 634 2.5 -12.6°
Drops below altitude 10° 00:21:47 10° 346° (NNW) 1,989 4.9 -11.6°
Sets 00:23:58 0° 347° (NNW) 2,897 5.7 -11.1°
